Regional Weather Roundup
Issued by NWS Newport/Morehead, NC

Current Version | Previous Version | Graphics & Text | Print | Product List | Glossary Off
Versions: 1 2 3 4 5 6 7 8 9 10 11 12 13 14 15 16 17 18 19 20 21 22 23 24 25 26 27 28 29 30 31 32 33 34 35 36 37 38 39 40 41 42 43 44 45 46 47 48 49 50
000 ASUS42 KMHX 210410 RWRMHX WEATHER ROUNDUP FOR EASTERN NORTH CAROLINA NATIONAL WEATHER SERVICE NEWPORT/MOREHEAD CITY NC 1200 AM EDT SUN SEP 21 2014 NOTE: "FAIR" INDICATES FEW OR NO CLOUDS BELOW 12,000 FEET WITH NO SIGNIFICANT WEATHER AND/OR OBSTRUCTIONS TO VISIBILITY NCZ015>017-031-032-045>047-102-103-210500- NORTH COAST CITY SKY/WX TMP DP RH WIND PRES REMARKS EDENTON DRIZZLE 70 69 96 NE3 29.94F ELIZABETH CITY CLOUDY 72 71 97 E5 29.95F KITTY HAWK LGT RAIN 72 69 90 SE5 29.93F MANTEO CLOUDY 71 67 89 E7 29.94F $$ NCZ045>047-081-094-103-104-210500- CENTRAL COAST CITY SKY/WX TMP DP RH WIND PRES REMARKS FRISCO RAIN 69 69 100 NE9 29.90F FOG SWANQUARTER N/A 72 N/A N/A NE5 29.88F $$ NCZ095-097-098-100-101-210500- SOUTHERN COAST CITY SKY/WX TMP DP RH WIND PRES REMARKS BEAUFORT LGT RAIN 72 70 93 NE15G23 29.87F CEDAR ISLAND N/A 72 N/A N/A NE14G29 29.94F JACKSONVILLE LGT RAIN 70 68 93 N13 29.88F NEWPORT NOT AVBL PINEY ISLAND HVY RAIN 74 70 87 NE16G25 29.88F FOG WILMINGTON LGT RAIN 70 68 93 N12 29.87F $$ NCZ011>013-027>030-043-044-078>080-089-090>093-098-210500- COASTAL PLAIN CITY SKY/WX TMP DP RH WIND PRES REMARKS AHOSKIE CLOUDY 67 65 93 N5 29.98S CLINTON CLOUDY 71 68 90 N6 29.93F ELIZABETHTOWN CLOUDY 71 67 87 CALM 29.92F GOLDSBORO CLOUDY 70 69 98 N3 29.93F GREENVILLE LGT RAIN 68 68 100 N5 29.97F HAVELOCK LGT RAIN 72 70 93 NE14 29.89F KENANSVILLE CLOUDY 69 67 93 N5 29.93F KINSTON CLOUDY 69 68 96 N7 29.94F NEW BERN CLOUDY 73 69 87 NE8 29.91F RICHLANDS CLOUDY 70 64 83 N8 29.90F ROANOKE RAPIDS NOT AVBL ROCKY MOUNT CLOUDY 69 65 86 N7 29.97F WASHINGTON CLOUDY 69 68 97 N6 29.93F WHITEVILLE CLOUDY 71 67 87 N5 29.90F $$ AMZ130-135-150-152-154-156-158-170-250-252-270-ANZ085-086-088-633-658-670-210500- MARINE OBSERVATIONS STATION/POSITION TIME TEMP WIND PRES WAVE SWELL AIR SEA DIR/SP/G HT/PER HT/PER (UTC) (F) (DEG/KT/KT) (MB) (FT/S) (FT/S) CHESAPEAKE LIGHT 0300 73 80/ 12/ 13 1016.0 BUOY 44014 0400 77 77 120/ 14/ 16 1014.2 6/10 5/10 DUCK 0400 74 74 110/ 10/ 12 1013.2 2E DUCK 0400 N/A 6/ 9 2/11 OREGON INLET 0400 72 73 90/ 6/ 9 1013.5 BUOY 44095 0400 74 N/A 8/ 9 3/11 20E OREGON INLET NOT AVBL HATTERAS CG 0400 71 75 70/ 9/ 15 1013.0 DIAMOND BUOY 0400 77 90/ 19/ 23 1011.3 8/ 9 5/ 9 CAPE LOOKOUT 0300 72 10/ 13/ 15 1011.7 BEAUFORT LAB 0400 71 75 40/ 11/ 18 1010.9 30 SE NEW RIVER 0400 75 83 30/ 23/ 29 1009.5 7/10 3/10 5 SE WRIGHTSVILL 0300 71 80 30/ 17/ 23 N/A BUOY 41002 0311 78 82 190/ 17/ 21 1011.8 8/ 7 3/ 9 BUOY 41004 0400 78 81 360/ 19/ 23 1010.3 8/ 8 $$

USA.gov is the U.S. government's official web portal to all federal, state and local government web resources and services.